NOAA 16 DEB, 41206

Orbit data source: Space-Track

NOAA 16 DEB, 41206 is space debris in SSO originally from a launch on Thu, 21 Sep 2000 UTC launched from the Air Force Western Test Range (AFWTR). Debris objects in space refer to the collection of defunct objects orbiting the Earth. Examples of debris include non-operational satellites, rocket bodies, and fragments generated from explosions, collisions, or faulty payload assembly.

Loading next visibility...
Identifier
41206, 2000-055DK
Orbit
SSO
Country
Flag of USUS
Related business
Manufacturer
Unknown
Mission
Spacecraft
Bus & Motor
Unknown
Mass
Unknown
Launch date (UTC)
2000-09-21 (26 years ago)
Launch vehicle
Unknown
Launch site
Air Force Western Test Range (AFWTR)
Object type
Payload
Rocket body
Debris
Shape & HBR
Unknown shape, 0.1 m
Radar Cross Section
Medium (>0.1 m² and <1 m²)

Expand to show TLE details & history
Last TLE update: 7 hours ago

TLE from 7 hours ago
0 NOAA 16 DEB
1 41206U 00055DK  26257.90527214  .00001923  00000-0  81543-3 0  9994
2 41206  98.6130 298.0489 0010378 248.0110 111.9968 14.26502898555372
Epoch: 2026-09-14T21:43Z
TLE epoch observation values (Epoch: 2026-09-14T21:43:35.512Z)
Latitude
-0.00005°
Longitude
-21.72792°
Altitude
809.169 km
Speed
7.447 km/s
True Right ascension
19h 52m 11s
True Declination
0° 00' 00"
Sunlit
Object was in full shadow at epoch
Visualization orbit readout
Latitude
Unknown
Longitude
Unknown
Altitude
Unknown
Speed
Unknown
Apparent Right ascension
Unknown
Apparent Declination
Unknown
Sunlit
N/A
Visualization observer readout
Local Sidereal Time
21:07:33
Azimuth
Unknown
Elevation
Unknown
Doppler factor
Unknown
Orbital elements
Apogee altitude
808.039 km
Perigee altitude
793.139 km
Semi-major axis
7,178.726 km
Eccentricity
0.00104
Inclination
98.613°
RAAN
298.0489°
Arg. of periapsis
248.011°
True anomaly
112.10701°
Mean anomaly
111.9968°
Eccentric anomaly
112.05191°
Mean motion
3.56839 °/min
Orbital period
100.89 mins
BSTAR
0.00081543
Loading maneuver chart data...
Computing Atmospheric mass density...
Loading historical data...
Loading historical data...
Loading historical data...
Loading historical data...
Loading historical data...
Loading historical data...
Loading historical data...

Documentation

Showing up to 5 results
|